TimeCDT,TemperatureF,Dew PointF,Humidity,Sea Level PressureIn,VisibilityMPH,Wind Direction,Wind SpeedMPH,Gust SpeedMPH,PrecipitationIn,Events,Conditions,WindDirDegrees,DateUTC
12:15 AM,68.0,62.6,83,30.07,10.0,SSE,10.4,-,N/A,,Partly Cloudy,150,2014-03-21 05:15:00
12:35 AM,68.0,62.6,83,30.07,10.0,SSE,9.2,-,N/A,,Partly Cloudy,150,2014-03-21 05:35:00
12:55 AM,66.2,62.6,88,30.06,10.0,SSE,12.7,-,N/A,,Partly Cloudy,150,2014-03-21 05:55:00
1:15 AM,66.2,62.6,88,30.06,9.0,SSE,10.4,-,N/A,,Partly Cloudy,160,2014-03-21 06:15:00
1:35 AM,68.0,62.6,83,30.05,10.0,SSE,8.1,-,N/A,,Partly Cloudy,160,2014-03-21 06:35:00
1:55 AM,66.2,62.6,88,30.04,10.0,SSE,9.2,-,N/A,,Partly Cloudy,150,2014-03-21 06:55:00
2:15 AM,66.2,62.6,88,30.03,10.0,SSE,10.4,-,N/A,,Partly Cloudy,150,2014-03-21 07:15:00
2:35 AM,66.2,62.6,88,30.02,10.0,SSE,10.4,16.1,N/A,,Clear,150,2014-03-21 07:35:00
2:55 AM,66.2,62.6,88,30.02,10.0,SSE,11.5,-,N/A,,Partly Cloudy,150,2014-03-21 07:55:00
3:15 AM,68.0,62.6,83,30.01,10.0,SE,9.2,15.0,N/A,,Partly Cloudy,140,2014-03-21 08:15:00
3:35 AM,68.0,62.6,83,30.01,10.0,Variable,6.9,13.8,N/A,,Scattered Clouds,0,2014-03-21 08:35:00
3:55 AM,68.0,62.6,83,30.00,10.0,SE,8.1,-,N/A,,Mostly Cloudy,140,2014-03-21 08:55:00
4:15 AM,68.0,62.6,83,29.99,10.0,SE,8.1,13.8,N/A,,Overcast,140,2014-03-21 09:15:00
4:35 AM,68.0,62.6,83,29.99,10.0,SE,9.2,-,N/A,,Mostly Cloudy,140,2014-03-21 09:35:00
4:55 AM,68.0,62.6,83,29.98,10.0,SE,5.8,13.8,N/A,,Scattered Clouds,130,2014-03-21 09:55:00
5:15 AM,68.0,62.6,83,29.98,10.0,ESE,12.7,-,N/A,,Partly Cloudy,120,2014-03-21 10:15:00
5:35 AM,68.0,62.6,83,29.98,10.0,ESE,15.0,-,N/A,,Clear,120,2014-03-21 10:35:00
5:55 AM,68.0,62.6,83,29.98,-9999.0,ESE,12.7,-,N/A,,Clear,120,2014-03-21 10:55:00
6:15 AM,68.0,62.6,83,29.98,10.0,ESE,6.9,17.3,N/A,,Clear,120,2014-03-21 11:15:00
6:35 AM,68.0,62.6,83,29.99,10.0,SE,8.1,15.0,N/A,,Clear,130,2014-03-21 11:35:00
6:55 AM,68.0,62.6,83,29.99,10.0,ESE,9.2,17.3,N/A,,Clear,120,2014-03-21 11:55:00
7:15 AM,68.0,62.6,83,29.99,10.0,ESE,9.2,17.3,N/A,,Clear,120,2014-03-21 12:15:00
7:35 AM,68.0,62.6,83,30.00,8.0,ESE,9.2,15.0,N/A,,Clear,120,2014-03-21 12:35:00
7:55 AM,68.0,62.6,83,29.99,8.0,ESE,15.0,20.7,N/A,,Clear,120,2014-03-21 12:55:00
8:15 AM,68.0,62.6,83,29.99,8.0,ESE,19.6,-,N/A,,Clear,120,2014-03-21 13:15:00
8:35 AM,68.0,64.4,88,29.99,8.0,ESE,20.7,-,N/A,,Mostly Cloudy,120,2014-03-21 13:35:00
8:55 AM,68.0,62.6,83,30.00,8.0,ESE,11.5,24.2,N/A,,Overcast,120,2014-03-21 13:55:00
9:15 AM,68.0,62.6,83,30.01,9.0,SE,10.4,19.6,N/A,,Overcast,130,2014-03-21 14:15:00
9:35 AM,68.0,62.6,83,30.01,9.0,SE,10.4,17.3,N/A,,Overcast,140,2014-03-21 14:35:00
9:55 AM,68.0,62.6,83,30.01,9.0,SE,12.7,18.4,N/A,,Overcast,140,2014-03-21 14:55:00
10:15 AM,69.8,62.6,78,30.01,9.0,SE,9.2,18.4,N/A,,Overcast,130,2014-03-21 15:15:00
10:35 AM,69.8,62.6,78,30.01,9.0,SE,9.2,18.4,N/A,,Overcast,130,2014-03-21 15:35:00
10:55 AM,69.8,62.6,78,30.00,9.0,ESE,11.5,24.2,N/A,,Overcast,120,2014-03-21 15:55:00
11:15 AM,69.8,62.6,78,30.02,9.0,SE,15.0,-,N/A,,Overcast,140,2014-03-21 16:15:00
11:35 AM,69.8,62.6,78,30.01,9.0,SE,12.7,-,N/A,,Mostly Cloudy,140,2014-03-21 16:35:00
11:55 AM,69.8,62.6,78,30.00,9.0,ESE,15.0,20.7,N/A,,Overcast,120,2014-03-21 16:55:00
12:15 PM,69.8,62.6,78,29.99,9.0,ESE,19.6,-,N/A,,Overcast,120,2014-03-21 17:15:00
12:35 PM,69.8,62.6,78,29.99,9.0,SE,10.4,21.9,N/A,,Overcast,130,2014-03-21 17:35:00
12:55 PM,69.8,62.6,78,29.99,9.0,SE,13.8,21.9,N/A,,Overcast,140,2014-03-21 17:55:00
1:15 PM,69.8,62.6,78,29.99,9.0,SE,13.8,23.0,N/A,,Overcast,130,2014-03-21 18:15:00
1:35 PM,71.6,62.6,73,29.98,9.0,SE,11.5,21.9,N/A,,Overcast,140,2014-03-21 18:35:00
1:55 PM,71.6,62.6,73,29.97,9.0,SE,12.7,19.6,N/A,,Scattered Clouds,140,2014-03-21 18:55:00
2:15 PM,71.6,64.4,78,29.97,9.0,SE,12.7,21.9,N/A,,Mostly Cloudy,140,2014-03-21 19:15:00
2:35 PM,71.6,64.4,78,29.96,8.0,SE,15.0,21.9,N/A,,Scattered Clouds,140,2014-03-21 19:35:00
2:55 PM,71.6,64.4,78,29.95,8.0,SE,12.7,21.9,N/A,,Partly Cloudy,140,2014-03-21 19:55:00
3:15 PM,71.6,64.4,78,29.94,8.0,SE,13.8,20.7,N/A,,Clear,140,2014-03-21 20:15:00
3:35 PM,71.6,64.4,78,29.93,9.0,SE,11.5,18.4,N/A,,Clear,140,2014-03-21 20:35:00
3:55 PM,71.6,64.4,78,29.93,8.0,SE,12.7,18.4,N/A,,Clear,140,2014-03-21 20:55:00
4:15 PM,71.6,64.4,78,29.92,9.0,SE,11.5,18.4,N/A,,Clear,140,2014-03-21 21:15:00
4:35 PM,71.6,66.2,83,29.91,8.0,SE,11.5,17.3,N/A,,Clear,130,2014-03-21 21:35:00
4:55 PM,71.6,66.2,83,29.91,7.0,SE,9.2,17.3,N/A,,Clear,130,2014-03-21 21:55:00
5:15 PM,71.6,66.2,83,29.91,8.0,SE,6.9,13.8,N/A,,Clear,130,2014-03-21 22:15:00
5:35 PM,71.6,66.2,83,29.90,9.0,SE,5.8,-,N/A,,Clear,130,2014-03-21 22:35:00
5:55 PM,71.6,66.2,83,29.90,8.0,Variable,6.9,-,N/A,,Clear,0,2014-03-21 22:55:00
6:15 PM,69.8,66.2,88,29.90,8.0,SE,9.2,-,N/A,,Clear,130,2014-03-21 23:15:00
6:35 PM,69.8,66.2,88,29.89,7.0,SE,9.2,-,N/A,,Clear,130,2014-03-21 23:35:00
6:55 PM,69.8,66.2,88,29.89,7.0,SE,10.4,-,N/A,,Clear,140,2014-03-21 23:55:00
7:15 PM,69.8,66.2,88,29.89,7.0,SE,6.9,13.8,N/A,,Mostly Cloudy,130,2014-03-22 00:15:00
7:35 PM,69.8,66.2,88,29.89,7.0,SE,6.9,17.3,N/A,,Overcast,130,2014-03-22 00:35:00
7:55 PM,69.8,66.2,88,29.90,6.0,SE,9.2,-,N/A,,Overcast,130,2014-03-22 00:55:00
8:15 PM,69.8,68.0,94,29.90,7.0,SE,11.5,17.3,N/A,,Unknown,140,2014-03-22 01:15:00
8:35 PM,69.8,68.0,94,29.91,7.0,SE,9.2,-,N/A,,Unknown,140,2014-03-22 01:35:00
8:55 PM,69.8,68.0,94,29.92,7.0,SE,10.4,-,N/A,,Unknown,140,2014-03-22 01:55:00
9:15 PM,69.8,68.0,94,29.93,7.0,SE,8.1,-,N/A,,Overcast,140,2014-03-22 02:15:00
9:35 PM,69.8,68.0,94,29.92,7.0,SE,6.9,13.8,N/A,,Overcast,140,2014-03-22 02:35:00
9:55 PM,69.8,68.0,94,29.93,6.0,SE,8.1,-,N/A,,Mist,130,2014-03-22 02:55:00
10:15 PM,69.8,68.0,94,29.94,6.0,SE,9.2,-,N/A,,Mist,140,2014-03-22 03:15:00
10:35 PM,69.8,69.8,100,29.94,6.0,SE,9.2,-,N/A,,Mist,130,2014-03-22 03:35:00
10:55 PM,69.8,69.8,100,29.94,7.0,SE,9.2,-,N/A,,Unknown,140,2014-03-22 03:55:00
11:15 PM,69.8,69.8,100,29.93,6.0,SE,10.4,-,N/A,,Overcast,130,2014-03-22 04:15:00
11:35 PM,69.8,69.8,100,29.93,6.0,SE,8.1,-,N/A,,Overcast,130,2014-03-22 04:35:00
11:55 PM,69.8,69.8,100,29.93,6.0,ESE,6.9,-,N/A,,Overcast,120,2014-03-22 04:55:00